| time (UTC) | temp C | wind direction | speed KPH | gust KPH | rain 1hr cm | rain 24hr cm | rain mn cm | humidity % | barometer mb |
| 20260507012653 | 12 | 248 | 0.0 | 0.0 | 0.00 | 1.68 | 1.68 | 97 | 1013.2 |
| 20260507012148 | 12 | 248 | 0.0 | 0.0 | 0.00 | 1.68 | 1.68 | 97 | 1012.8 |
| 20260507011647 | 12 | 249 | 0.0 | 0.0 | 0.00 | 1.68 | 1.68 | 97 | 1013.1 |
| 20260507011142 | 12 | 249 | 0.0 | 0.0 | 0.00 | 1.68 | 1.68 | 97 | 1013.0 |
| 20260507010637 | 12 | 249 | 0.0 | 0.0 | 0.00 | 1.68 | 1.68 | 96 | 1012.6 |
| 20260507010133 | 12 | 249 | 0.0 | 0.0 | 0.00 | 1.68 | 1.68 | 96 | 1012.8 |
| 20260507005631 | 12 | 249 | 0.0 | 0.0 | 0.00 | 1.68 | 1.68 | 96 | 1013.1 |
| 20260507005127 | 12 | 249 | 0.0 | 0.0 | 0.00 | 1.68 | 1.68 | 96 | 1013.2 |
| 20260507004624 | 12 | 248 | 0.0 | 0.0 | 0.00 | 1.68 | 1.68 | 96 | 1013.1 |
| 20260507004122 | 12 | 248 | 0.0 | 0.0 | 0.00 | 1.68 | 1.68 | 95 | 1012.8 |
| 20260507003618 | 12 | 248 | 0.0 | 0.0 | 0.00 | 1.68 | 1.68 | 96 | 1012.8 |
| 20260507003113 | 12 | 248 | 0.0 | 0.0 | 0.00 | 1.68 | 1.68 | 96 | 1012.9 |
| 20260507002609 | 12 | 248 | 0.0 | 0.0 | 0.00 | 1.68 | 1.68 | 96 | 1012.7 |
| 20260507002105 | 12 | 248 | 0.0 | 0.0 | 0.00 | 1.68 | 1.68 | 96 | 1012.8 |
| 20260507001602 | 12 | 174 | 0.0 | 0.0 | 0.00 | 1.68 | 1.68 | 96 | 1012.4 |
| 20260507001100 | 12 | 174 | 0.0 | 0.0 | 0.00 | 1.68 | 1.68 | 96 | 1012.6 |
| 20260507000556 | 12 | 174 | 0.0 | 0.0 | 0.00 | 1.68 | 1.68 | 96 | 1012.6 |
| 20260507000051 | 12 | 174 | 0.0 | 0.0 | 0.00 | 1.68 | 1.68 | 96 | 1012.6 |
| 20260506235549 | 12 | 174 | 0.0 | 0.0 | 0.00 | 1.68 | 1.68 | 96 | 1012.4 |
| 20260506235044 | 12 | 174 | 0.0 | 0.0 | 0.00 | 1.68 | 1.68 | 96 | 1012.2 |
| 20260506234542 | 13 | 174 | 0.0 | 0.0 | 0.00 | 1.68 | 1.68 | 96 | 1012.3 |
| 20260506234039 | 13 | 175 | 0.0 | 0.0 | 0.00 | 1.68 | 1.68 | 94 | 1012.6 |
| 20260506233536 | 13 | 175 | 0.0 | 0.0 | 0.00 | 1.68 | 1.68 | 93 | 1013.0 |
| 20260506233033 | 13 | 169 | 0.0 | 0.0 | 0.00 | 1.68 | 1.68 | 93 | 1013.1 |
| 20260506232529 | 13 | 168 | 0.0 | 0.0 | 0.00 | 1.68 | 1.68 | 93 | 1012.6 |
| 20260506232024 | 13 | 168 | 0.0 | 0.0 | 0.00 | 1.68 | 1.68 | 94 | 1012.5 |
| 20260506231522 | 13 | 169 | 0.0 | 0.0 | 0.00 | 1.68 | 1.68 | 93 | 1012.9 |
| 20260506231020 | 13 | 168 | 0.0 | 0.0 | 0.00 | 1.68 | 1.68 | 93 | 1012.7 |
| 20260506230516 | 13 | 168 | 0.0 | 0.0 | 0.00 | 1.68 | 1.68 | 93 | 1012.7 |
| 20260506230014 | 13 | 168 | 0.0 | 0.0 | 0.00 | 1.68 | 1.68 | 92 | 1012.7 |
| 20260506225511 | 13 | 168 | 0.0 | 0.0 | 0.00 | 1.68 | 1.68 | 92 | 1012.7 |
| 20260506225007 | 13 | 168 | 0.0 | 0.0 | 0.00 | 1.68 | 1.68 | 92 | 1012.6 |
| 20260506224503 | 13 | 168 | 0.0 | 0.0 | 0.00 | 1.68 | 1.68 | 90 | 1012.8 |
| 20260506224000 | 13 | 169 | 0.0 | 0.0 | 0.00 | 1.68 | 1.68 | 90 | 1012.9 |
| 20260506223456 | 13 | 92 | 0.0 | 0.0 | 0.00 | 1.68 | 1.68 | 90 | 1012.8 |
| 20260506222953 | 13 | 184 | 1.6 | 3.2 | 0.00 | 1.68 | 1.68 | 89 | 1012.6 |
| 20260506222450 | 13 | 306 | 0.0 | 0.0 | 0.00 | 1.68 | 1.68 | 90 | 1012.5 |
| 20260506221946 | 13 | 307 | 0.0 | 0.0 | 0.00 | 1.68 | 1.68 | 88 | 1012.3 |
| 20260506221443 | 13 | 306 | 0.0 | 0.0 | 0.00 | 1.68 | 1.68 | 89 | 1012.5 |
| 20260506220941 | 13 | 307 | 1.6 | 1.6 | 0.00 | 1.68 | 1.68 | 88 | 1012.4 |
| 20260506220437 | 13 | 307 | 0.0 | 1.6 | 0.00 | 1.68 | 1.68 | 87 | 1012.2 |
| 20260506215933 | 13 | 307 | 0.0 | 0.0 | 0.00 | 1.68 | 1.68 | 88 | 1012.1 |
| 20260506215430 | 13 | 306 | 0.0 | 0.0 | 0.00 | 1.68 | 1.68 | 87 | 1012.2 |
| 20260506214925 | 13 | 306 | 0.0 | 0.0 | 0.00 | 1.68 | 1.68 | 87 | 1012.3 |
| 20260506214423 | 13 | 306 | 1.6 | 1.6 | 0.00 | 1.68 | 1.68 | 88 | 1012.2 |
| 20260506213920 | 13 | 306 | 0.0 | 0.0 | 0.00 | 1.68 | 1.68 | 88 | 1012.4 |
| 20260506213418 | 13 | 307 | 0.0 | 0.0 | 0.00 | 1.68 | 1.68 | 87 | 1012.3 |
| 20260506212915 | 13 | 307 | 0.0 | 0.0 | 0.00 | 1.68 | 1.68 | 87 | 1012.3 |
| 20260506212411 | 13 | 307 | 0.0 | 0.0 | 0.00 | 1.68 | 1.68 | 87 | 1012.0 |
| 20260506211906 | 13 | 307 | 0.0 | 0.0 | 0.00 | 1.68 | 1.68 | 87 | 1012.3 |
| 20260506211402 | 13 | 307 | 0.0 | 1.6 | 0.00 | 1.68 | 1.68 | 86 | 1012.1 |
| 20260506210859 | 13 | 307 | 0.0 | 1.6 | 0.00 | 1.68 | 1.68 | 87 | 1012.1 |
| 20260506210356 | 13 | 307 | 0.0 | 1.6 | 0.00 | 1.68 | 1.68 | 88 | 1012.1 |
| 20260506205853 | 13 | 307 | 0.0 | 0.0 | 0.00 | 1.68 | 1.68 | 89 | 1012.1 |
| 20260506205349 | 13 | 307 | 0.0 | 0.0 | 0.00 | 1.68 | 1.68 | 88 | 1012.1 |
| 20260506204846 | 13 | 313 | 4.8 | 4.8 | 0.00 | 1.68 | 1.68 | 89 | 1011.9 |
| 20260506204344 | 13 | 290 | 1.6 | 3.2 | 0.00 | 1.68 | 1.68 | 89 | 1012.1 |
| 20260506203841 | 13 | 306 | 0.0 | 1.6 | 0.00 | 1.68 | 1.68 | 88 | 1011.7 |
| 20260506203338 | 13 | 307 | 1.6 | 1.6 | 0.00 | 1.68 | 1.68 | 88 | 1011.9 |
| 20260506202835 | 13 | 286 | 0.0 | 1.6 | 0.00 | 1.68 | 1.68 | 88 | 1011.7 |
| 20260506202332 | 13 | 257 | 3.2 | 3.2 | 0.00 | 1.68 | 1.68 | 88 | 1011.7 |
| 20260506201828 | 13 | 298 | 1.6 | 3.2 | 0.00 | 1.68 | 1.68 | 89 | 1011.9 |
| 20260506201326 | 13 | 288 | 3.2 | 3.2 | 0.00 | 1.68 | 1.68 | 90 | 1011.6 |
| 20260506200822 | 13 | 253 | 1.6 | 4.8 | 0.00 | 1.68 | 1.68 | 91 | 1011.7 |
| 20260506200318 | 13 | 322 | 3.2 | 3.2 | 0.00 | 1.68 | 1.68 | 91 | 1011.6 |
| 20260506195815 | 13 | 285 | 1.6 | 4.8 | 0.00 | 1.68 | 1.68 | 92 | 1011.7 |
| 20260506195312 | 12 | 313 | 4.8 | 6.4 | 0.00 | 1.68 | 1.68 | 91 | 1011.7 |
| 20260506194809 | 13 | 308 | 3.2 | 4.8 | 0.00 | 1.68 | 1.68 | 91 | 1011.6 |
| 20260506194305 | 13 | 287 | 4.8 | 6.4 | 0.00 | 1.68 | 1.68 | 91 | 1011.8 |
| 20260506193803 | 13 | 323 | 3.2 | 6.4 | 0.00 | 1.68 | 1.68 | 91 | 1011.6 |
| 20260506193300 | 13 | 311 | 6.4 | 11.3 | 0.00 | 1.68 | 1.68 | 91 | 1011.6 |
| 20260506192756 | 12 | 304 | 3.2 | 6.4 | 0.00 | 1.68 | 1.68 | 92 | 1011.4 |
| 20260506192253 | 12 | 308 | 3.2 | 9.7 | 0.00 | 1.68 | 1.68 | 91 | 1011.6 |
| 20260506191750 | 12 | 312 | 1.6 | 6.4 | 0.00 | 1.68 | 1.68 | 92 | 1011.5 |
| 20260506191246 | 12 | 307 | 4.8 | 6.4 | 0.00 | 1.68 | 1.68 | 92 | 1011.5 |
| 20260506190743 | 12 | 311 | 8.0 | 9.7 | 0.00 | 1.68 | 1.68 | 92 | 1011.5 |
| 20260506190240 | 13 | 309 | 6.4 | 11.3 | 0.00 | 1.68 | 1.68 | 92 | 1011.4 |
| 20260506185737 | 13 | 277 | 4.8 | 9.7 | 0.00 | 1.68 | 1.68 | 91 | 1011.4 |
| 20260506185233 | 13 | 309 | 3.2 | 6.4 | 0.00 | 1.68 | 1.68 | 93 | 1011.7 |
| 20260506184731 | 13 | 316 | 6.4 | 9.7 | 0.00 | 1.68 | 1.68 | 93 | 1011.8 |
| 20260506184228 | 12 | 318 | 8.0 | 11.3 | 0.00 | 1.68 | 1.68 | 94 | 1011.7 |
| 20260506183725 | 12 | 313 | 6.4 | 12.9 | 0.00 | 1.68 | 1.68 | 93 | 1011.6 |
| 20260506183220 | 12 | 312 | 4.8 | 4.8 | 0.00 | 1.68 | 1.68 | 92 | 1011.3 |
| 20260506182718 | 12 | 312 | 9.7 | 14.5 | 0.00 | 1.68 | 1.68 | 93 | 1011.3 |
| 20260506182214 | 12 | 309 | 6.4 | 11.3 | 0.00 | 1.68 | 1.68 | 93 | 1011.2 |
| 20260506181712 | 12 | 314 | 6.4 | 9.7 | 0.00 | 1.68 | 1.68 | 93 | 1011.3 |
| 20260506181204 | 13 | 297 | 9.7 | 16.1 | 0.00 | 1.68 | 1.68 | 93 | 1011.4 |
| 20260506180702 | 13 | 312 | 9.7 | 12.9 | 0.00 | 1.68 | 1.68 | 93 | 1011.4 |
| 20260506180157 | 13 | 307 | 8.0 | 12.9 | 0.00 | 1.68 | 1.68 | 93 | 1011.2 |
| 20260506175654 | 13 | 309 | 6.4 | 9.7 | 0.00 | 1.68 | 1.68 | 94 | 1011.2 |
| 20260506175150 | 13 | 311 | 9.7 | 11.3 | 0.00 | 1.68 | 1.68 | 94 | 1011.4 |
| 20260506174648 | 13 | 307 | 6.4 | 12.9 | 0.00 | 1.68 | 1.68 | 94 | 1011.2 |
| 20260506174145 | 13 | 311 | 12.9 | 12.9 | 0.00 | 1.68 | 1.68 | 94 | 1011.3 |
| 20260506173643 | 13 | 277 | 9.7 | 12.9 | 0.00 | 1.68 | 1.68 | 95 | 1011.1 |
| 20260506173140 | 13 | 313 | 11.3 | 16.1 | 0.00 | 1.68 | 1.68 | 95 | 1010.8 |
| 20260506172637 | 13 | 307 | 6.4 | 9.7 | 0.00 | 1.68 | 1.68 | 96 | 1011.1 |
| 20260506172133 | 13 | 312 | 9.7 | 12.9 | 0.00 | 1.68 | 1.68 | 95 | 1011.1 |
| 20260506171630 | 13 | 311 | 6.4 | 14.5 | 0.00 | 1.68 | 1.68 | 96 | 1011.4 |
| 20260506171128 | 13 | 318 | 1.6 | 4.8 | 0.00 | 1.68 | 1.68 | 96 | 1011.1 |
| 20260506170626 | 13 | 317 | 11.3 | 12.9 | 0.00 | 1.68 | 1.68 | 96 | 1011.2 |
| 20260506170122 | 13 | 320 | 4.8 | 12.9 | 0.00 | 1.68 | 1.68 | 95 | 1011.3 |
| 20260506165621 | 13 | 317 | 8.0 | 9.7 | 0.00 | 1.68 | 1.68 | 96 | 1011.2 |
| 20260506165116 | 13 | 314 | 11.3 | 14.5 | 0.00 | 1.68 | 1.68 | 96 | 1011.1 |
| 20260506164614 | 13 | 316 | 4.8 | 11.3 | 0.00 | 1.68 | 1.68 | 96 | 1010.9 |
| 20260506164112 | 13 | 281 | 4.8 | 12.9 | 0.00 | 1.68 | 1.68 | 97 | 1011.2 |
| 20260506163607 | 13 | 309 | 9.7 | 12.9 | 0.00 | 1.68 | 1.68 | 97 | 1011.3 |
| 20260506163103 | 13 | 311 | 8.0 | 9.7 | 0.00 | 1.68 | 1.68 | 97 | 1011.2 |
| 20260506162559 | 13 | 307 | 9.7 | 12.9 | 0.00 | 1.68 | 1.68 | 97 | 1010.8 |
| 20260506162051 | 13 | 302 | 8.0 | 11.3 | 0.00 | 1.68 | 1.68 | 97 | 1011.1 |
| 20260506161549 | 13 | 309 | 9.7 | 16.1 | 0.00 | 1.68 | 1.68 | 96 | 1010.8 |
| 20260506161045 | 13 | 309 | 9.7 | 11.3 | 0.00 | 1.68 | 1.68 | 97 | 1011.1 |
| 20260506160543 | 13 | 307 | 8.0 | 12.9 | 0.00 | 1.68 | 1.68 | 96 | 1010.7 |
| 20260506160039 | 13 | 283 | 9.7 | 17.7 | 0.00 | 1.68 | 1.68 | 96 | 1010.7 |
| 20260506155538 | 13 | 325 | 9.7 | 12.9 | 0.00 | 1.68 | 1.68 | 96 | 1010.5 |
| 20260506153715 | 15 | 314 | 9.7 | 17.7 | 0.18 | 1.68 | 1.68 | 98 | 1009.8 |
| 20260506153212 | 15 | 315 | 8.0 | 9.7 | 0.18 | 1.68 | 1.68 | 98 | 1009.7 |
| 20260506152709 | 15 | 311 | 3.2 | 3.2 | 0.00 | 1.65 | 1.65 | 98 | 1009.6 |
| 20260506152206 | 15 | 298 | 0.0 | 1.6 | 0.00 | 1.65 | 1.65 | 98 | 1009.4 |
| 20260506151706 | 15 | 294 | 1.6 | 3.2 | 0.00 | 1.65 | 1.65 | 98 | 1009.4 |
| 20260506151201 | 15 | 299 | 1.6 | 1.6 | 0.13 | 1.65 | 1.65 | 98 | 1009.5 |
| 20260506150658 | 15 | 303 | 0.0 | 3.2 | 0.13 | 1.65 | 1.65 | 98 | 1009.6 |
| 20260506150155 | 15 | 297 | 1.6 | 3.2 | 0.00 | 1.63 | 1.63 | 98 | 1009.2 |
| 20260506145652 | 15 | 291 | 0.0 | 3.2 | 0.00 | 1.63 | 1.63 | 98 | 1009.3 |
| 20260506145149 | 15 | 277 | 1.6 | 3.2 | 0.00 | 1.63 | 1.63 | 97 | 1009.1 |
| 20260506144647 | 15 | 315 | 3.2 | 4.8 | 0.00 | 1.63 | 1.63 | 97 | 1009.3 |
| 20260506144143 | 15 | 219 | 0.0 | 3.2 | 0.00 | 1.63 | 1.63 | 97 | 1009.2 |
| 20260506143641 | 15 | 308 | 8.0 | 11.3 | 0.00 | 1.63 | 1.63 | 97 | 1009.3 |
| 20260506143139 | 15 | 311 | 0.0 | 6.4 | 0.00 | 1.63 | 1.63 | 97 | 1009.0 |
| 20260506142637 | 15 | 160 | 3.2 | 6.4 | 0.00 | 1.63 | 1.63 | 97 | 1008.8 |
| 20260506142135 | 15 | 243 | 3.2 | 12.9 | 0.00 | 1.63 | 1.63 | 97 | 1008.8 |
| 20260506141632 | 15 | 258 | 4.8 | 16.1 | 0.00 | 1.63 | 1.63 | 96 | 1008.8 |
| 20260506141130 | 15 | 253 | 1.6 | 11.3 | 0.00 | 1.63 | 1.63 | 96 | 1008.8 |
| 20260506140627 | 15 | 309 | 4.8 | 11.3 | 0.00 | 1.63 | 1.63 | 96 | 1008.6 |
| 20260506140124 | 15 | 252 | 4.8 | 9.7 | 0.00 | 1.63 | 1.63 | 96 | 1008.3 |
| 20260506135621 | 15 | 244 | 6.4 | 6.4 | 0.00 | 1.63 | 1.63 | 97 | 1008.2 |
| 20260506135118 | 15 | 235 | 1.6 | 3.2 | 0.00 | 1.63 | 1.63 | 97 | 1008.2 |
| 20260506134614 | 15 | 213 | 3.2 | 9.7 | 0.00 | 1.63 | 1.63 | 97 | 1008.0 |
| 20260506134110 | 15 | 281 | 3.2 | 4.8 | 0.00 | 1.63 | 1.63 | 97 | 1008.1 |
| 20260506133608 | 15 | 318 | 4.8 | 11.3 | 0.00 | 1.63 | 1.63 | 96 | 1008.4 |
| 20260506133104 | 15 | 257 | 4.8 | 6.4 | 0.00 | 1.63 | 1.63 | 96 | 1008.5 |
| 20260506132602 | 15 | 251 | 4.8 | 6.4 | 0.00 | 1.63 | 1.63 | 95 | 1008.3 |
| 20260506132058 | 15 | 180 | 1.6 | 14.5 | 0.00 | 1.63 | 1.63 | 95 | 1008.4 |
| 20260506131556 | 15 | 240 | 1.6 | 3.2 | 0.00 | 1.63 | 1.63 | 96 | 1008.3 |
| 20260506131052 | 15 | 265 | 1.6 | 4.8 | 0.00 | 1.63 | 1.63 | 96 | 1008.5 |
| 20260506130549 | 15 | 253 | 3.2 | 9.7 | 0.00 | 1.63 | 1.63 | 96 | 1008.5 |
| 20260506130047 | 15 | 293 | 1.6 | 3.2 | 0.00 | 1.63 | 1.63 | 97 | 1008.4 |
| 20260506125545 | 15 | 278 | 1.6 | 4.8 | 0.00 | 1.63 | 1.63 | 97 | 1008.3 |
| 20260506125042 | 14 | 259 | 4.8 | 4.8 | 0.00 | 1.63 | 1.63 | 98 | 1008.2 |
| 20260506124540 | 14 | 190 | 1.6 | 3.2 | 0.00 | 1.63 | 1.63 | 98 | 1008.1 |
| 20260506124037 | 14 | 245 | 0.0 | 1.6 | 0.00 | 1.63 | 1.63 | 98 | 1008.1 |
| 20260506123535 | 14 | 312 | 3.2 | 4.8 | 0.00 | 1.63 | 1.63 | 98 | 1008.0 |
| 20260506123034 | 14 | 325 | 1.6 | 1.6 | 0.00 | 1.63 | 1.63 | 99 | 1008.0 |
| 20260506122530 | 14 | 52 | 1.6 | 1.6 | 0.00 | 1.63 | 1.63 | 99 | 1007.9 |
| 20260506122028 | 14 | 212 | 0.0 | 3.2 | 0.00 | 1.63 | 1.63 | 99 | 1007.9 |
| 20260506121525 | 14 | 127 | 1.6 | 3.2 | 0.00 | 1.63 | 1.63 | 99 | 1007.8 |
| 20260506121021 | 13 | 146 | 0.0 | 0.0 | 0.18 | 1.63 | 1.63 | 99 | 1008.1 |
| 20260506120520 | 13 | 47 | 0.0 | 4.8 | 0.18 | 1.63 | 1.63 | 99 | 1008.0 |
| 20260506120016 | 13 | 260 | 0.0 | 6.4 | 0.00 | 1.60 | 1.60 | 99 | 1008.1 |
| 20260506115514 | 13 | 108 | 1.6 | 3.2 | 0.00 | 1.60 | 1.60 | 99 | 1007.9 |
| 20260506115012 | 13 | 74 | 0.0 | 0.0 | 0.18 | 1.60 | 1.60 | 99 | 1007.9 |
| 20260506114509 | 13 | 74 | 0.0 | 0.0 | 0.18 | 1.60 | 1.60 | 99 | 1008.2 |
| 20260506114008 | 13 | 74 | 0.0 | 0.0 | 0.00 | 1.57 | 1.57 | 99 | 1008.1 |
| 20260506113505 | 13 | 29 | 0.0 | 0.0 | 0.00 | 1.57 | 1.57 | 99 | 1008.0 |
| 20260506113002 | 13 | 26 | 0.0 | 0.0 | 0.13 | 1.57 | 1.57 | 99 | 1008.0 |
| 20260506112459 | 13 | 23 | 0.0 | 0.0 | 0.30 | 1.57 | 1.57 | 99 | 1007.8 |
| 20260506111956 | 13 | 23 | 0.0 | 0.0 | 0.18 | 1.55 | 1.55 | 99 | 1007.8 |
| 20260506111454 | 13 | 23 | 0.0 | 0.0 | 0.13 | 1.52 | 1.52 | 99 | 1007.9 |
| 20260506110951 | 13 | 23 | 0.0 | 0.0 | 0.13 | 1.52 | 1.52 | 99 | 1008.0 |
| 20260506110449 | 13 | 23 | 0.0 | 0.0 | 0.18 | 1.50 | 1.50 | 99 | 1007.7 |
| 20260506105945 | 13 | 23 | 0.0 | 0.0 | 0.30 | 1.50 | 1.50 | 99 | 1007.9 |
| 20260506105441 | 13 | 23 | 0.0 | 0.0 | 0.13 | 1.47 | 1.47 | 99 | 1007.8 |
| 20260506104939 | 13 | 22 | 0.0 | 0.0 | 0.18 | 1.45 | 1.45 | 99 | 1007.8 |
| 20260506104437 | 13 | 23 | 0.0 | 0.0 | 0.48 | 1.45 | 1.45 | 99 | 1007.6 |
| 20260506103935 | 13 | 22 | 0.0 | 0.0 | 0.43 | 1.42 | 1.42 | 99 | 1007.7 |
| 20260506103432 | 13 | 22 | 0.0 | 0.0 | 0.43 | 1.37 | 1.37 | 99 | 1007.6 |
| 20260506102929 | 13 | 28 | 0.0 | 0.0 | 0.30 | 1.35 | 1.35 | 99 | 1007.5 |
| 20260506102427 | 13 | 27 | 0.0 | 0.0 | 0.18 | 1.30 | 1.30 | 99 | 1007.6 |
| 20260506101924 | 13 | 27 | 0.0 | 0.0 | 0.36 | 1.30 | 1.30 | 99 | 1007.5 |
| 20260506101419 | 13 | 27 | 0.0 | 1.6 | 0.30 | 1.24 | 1.24 | 99 | 1007.5 |
| 20260506100917 | 13 | 27 | 3.2 | 3.2 | 0.30 | 1.24 | 1.24 | 99 | 1007.7 |
| 20260506100416 | 13 | 27 | 0.0 | 1.6 | 0.13 | 1.19 | 1.19 | 99 | 1007.4 |
| 20260506095913 | 13 | 26 | 0.0 | 1.6 | 0.43 | 1.19 | 1.19 | 99 | 1007.6 |
| 20260506095411 | 13 | 79 | 1.6 | 1.6 | 0.61 | 1.17 | 1.17 | 99 | 1007.5 |
| 20260506094907 | 13 | 33 | 0.0 | 3.2 | 0.48 | 1.12 | 1.12 | 99 | 1007.6 |
| 20260506094406 | 13 | 41 | 0.0 | 0.0 | 0.18 | 1.07 | 1.07 | 99 | 1007.7 |
| 20260506093903 | 13 | 50 | 0.0 | 1.6 | 0.13 | 1.04 | 1.04 | 99 | 1007.7 |
| 20260506093401 | 13 | 59 | 1.6 | 1.6 | 0.13 | 1.04 | 1.04 | 99 | 1007.4 |
| 20260506092858 | 13 | 67 | 0.0 | 1.6 | 0.18 | 1.02 | 1.02 | 99 | 1007.7 |
| 20260506092356 | 13 | 113 | 0.0 | 0.0 | 0.30 | 1.02 | 1.02 | 99 | 1007.8 |
| 20260506091852 | 13 | 97 | 0.0 | 0.0 | 0.30 | 0.99 | 0.99 | 99 | 1008.1 |
| 20260506091351 | 13 | 218 | 0.0 | 0.0 | 0.48 | 0.97 | 0.97 | 99 | 1008.3 |
| 20260506090848 | 13 | 252 | 0.0 | 0.0 | 0.61 | 0.94 | 0.94 | 99 | 1008.3 |
| 20260506090345 | 13 | 252 | 0.0 | 0.0 | 0.79 | 0.89 | 0.89 | 99 | 1008.4 |
| 20260506085837 | 13 | 252 | 0.0 | 0.0 | 0.89 | 0.84 | 0.84 | 99 | 1008.3 |
| 20260506085333 | 13 | 252 | 0.0 | 1.6 | 0.61 | 0.76 | 0.76 | 99 | 1008.2 |
| 20260506084830 | 13 | 263 | 0.0 | 0.0 | 0.79 | 0.69 | 0.69 | 99 | 1008.5 |
| 20260506084327 | 13 | 246 | 0.0 | 1.6 | 1.80 | 0.66 | 0.66 | 99 | 1008.5 |
| 20260506083823 | 13 | 256 | 0.0 | 0.0 | 2.29 | 0.56 | 0.56 | 99 | 1008.5 |
| 20260506083321 | 13 | 301 | 0.0 | 0.0 | 1.50 | 0.33 | 0.33 | 99 | 1008.7 |
| 20260506082818 | 13 | 298 | 1.6 | 3.2 | 0.43 | 0.15 | 0.15 | 99 | 1008.9 |
| 20260506082314 | 13 | 319 | 6.4 | 6.4 | 0.00 | 0.08 | 0.08 | 99 | 1008.6 |
| 20260506081811 | 13 | 325 | 0.0 | 0.0 | 0.18 | 0.08 | 0.08 | 99 | 1008.2 |
| 20260506081309 | 13 | 325 | 0.0 | 0.0 | 0.18 | 0.08 | 0.08 | 99 | 1007.9 |
| 20260506080806 | 13 | 325 | 0.0 | 0.0 | 0.00 | 0.05 | 0.05 | 98 | 1008.0 |
| 20260506080302 | 13 | 325 | 0.0 | 0.0 | 0.00 | 0.05 | 0.05 | 98 | 1007.8 |
| 20260506073246 | 13 | 325 | 0.0 | 0.0 | 0.00 | 0.03 | 0.03 | 98 | 1007.6 |
| 20260506072743 | 13 | 325 | 0.0 | 0.0 | 0.18 | 0.03 | 0.03 | 98 | 1007.6 |
| 20260506072241 | 13 | 325 | 0.0 | 3.2 | 0.00 | 0.00 | 0.00 | 98 | 1007.9 |
| 20260506071738 | 13 | 325 | 0.0 | 0.0 | 0.00 | 0.00 | 0.00 | 98 | 1007.8 |
| 20260506071236 | 13 | 325 | 0.0 | 0.0 | 0.00 | 0.00 | 0.00 | 98 | 1007.9 |
| 20260506070733 | 13 | 325 | 0.0 | 1.6 | 0.00 | 0.00 | 0.00 | 98 | 1007.9 |
| 20260506070230 | 13 | 325 | 0.0 | 0.0 | 0.00 | 0.00 | 0.00 | 98 | 1007.8 |
| 20260506062207 | 13 | 325 | 0.0 | 0.0 | 0.00 | 0.00 | 0.00 | 97 | 1007.9 |
| 20260506061702 | 13 | 325 | 0.0 | 0.0 | 0.00 | 0.00 | 0.00 | 97 | 1007.8 |
| 20260506061159 | 13 | 325 | 0.0 | 0.0 | 0.00 | 0.00 | 0.00 | 97 | 1008.0 |
| 20260506060659 | 13 | 325 | 0.0 | 0.0 | 0.00 | 0.00 | 0.00 | 97 | 1008.1 |
| 20260506060155 | 14 | 325 | 0.0 | 0.0 | 0.00 | 0.00 | 0.00 | 97 | 1008.3 |
| 20260506051126 | 14 | 325 | 0.0 | 0.0 | 0.00 | 0.00 | 0.00 | 95 | 1008.7 |
| 20260506050625 | 14 | 325 | 0.0 | 0.0 | 0.00 | 0.00 | 0.00 | 94 | 1008.8 |
| 20260506050122 | 14 | 325 | 0.0 | 0.0 | 0.00 | 0.00 | 0.00 | 94 | 1009.1 |
| 20260506045115 | 14 | 325 | 0.0 | 0.0 | 0.00 | 0.00 | 0.00 | 92 | 1009.0 |
| 20260506044613 | 14 | 325 | 0.0 | 0.0 | 0.00 | 0.00 | 0.00 | 92 | 1008.8 |
| 20260506044109 | 14 | 325 | 0.0 | 0.0 | 0.00 | 0.00 | 0.00 | 92 | 1009.0 |
| 20260506043607 | 14 | 325 | 0.0 | 0.0 | 0.00 | 0.00 | 0.00 | 91 | 1009.4 |
| 20260506043105 | 14 | 325 | 0.0 | 0.0 | 0.00 | 0.00 | 0.00 | 91 | 1009.0 |
| 20260506042604 | 15 | 325 | 0.0 | 0.0 | 0.00 | 0.00 | 0.00 | 90 | 1009.2 |
| 20260506042101 | 15 | 325 | 0.0 | 0.0 | 0.00 | 0.00 | 0.00 | 89 | 1009.1 |
| 20260506041600 | 15 | 325 | 0.0 | 0.0 | 0.00 | 0.00 | 0.00 | 88 | 1009.4 |
| 20260506041056 | 15 | 325 | 0.0 | 0.0 | 0.00 | 0.00 | 0.00 | 87 | 1009.4 |
| 20260506040554 | 15 | 325 | 0.0 | 0.0 | 0.00 | 0.00 | 0.00 | 86 | 1009.5 |
| 20260506040050 | 15 | 325 | 0.0 | 0.0 | 0.00 | 0.00 | 0.00 | 85 | 1009.6 |
| 20260506035548 | 15 | 325 | 0.0 | 0.0 | 0.00 | 0.00 | 0.00 | 85 | 1009.5 |
| 20260506035044 | 15 | 325 | 0.0 | 0.0 | 0.00 | 0.00 | 0.00 | 84 | 1009.6 |
| 20260506034541 | 15 | 325 | 0.0 | 1.6 | 0.00 | 0.00 | 0.00 | 82 | 1009.2 |
| 20260506034038 | 15 | 325 | 0.0 | 0.0 | 0.00 | 0.00 | 0.00 | 82 | 1009.1 |
| 20260506033535 | 16 | 325 | 0.0 | 0.0 | 0.00 | 0.00 | 0.00 | 82 | 1009.1 |
| 20260506033032 | 16 | 325 | 0.0 | 0.0 | 0.00 | 0.00 | 0.00 | 80 | 1008.7 |
| 20260506032530 | 15 | 324 | 0.0 | 0.0 | 0.00 | 0.00 | 0.00 | 81 | 1009.2 |
| 20260506032026 | 16 | 325 | 0.0 | 0.0 | 0.00 | 0.00 | 0.00 | 82 | 1008.9 |
| 20260506031524 | 16 | 325 | 0.0 | 0.0 | 0.00 | 0.00 | 0.00 | 81 | 1009.1 |
| 20260506031021 | 15 | 324 | 0.0 | 1.6 | 0.00 | 0.00 | 0.00 | 83 | 1009.2 |
| 20260506030519 | 16 | 324 | 1.6 | 1.6 | 0.00 | 0.00 | 0.00 | 84 | 1009.5 |
| 20260506030016 | 16 | 324 | 1.6 | 1.6 | 0.00 | 0.00 | 0.00 | 79 | 1009.2 |
| 20260506025513 | 16 | 325 | 0.0 | 0.0 | 0.00 | 0.00 | 0.00 | 78 | 1009.1 |
| 20260506025009 | 16 | 325 | 0.0 | 0.0 | 0.00 | 0.00 | 0.00 | 79 | 1009.1 |
| 20260506024507 | 16 | 325 | 0.0 | 0.0 | 0.00 | 0.00 | 0.00 | 80 | 1009.0 |
| 20260506024002 | 16 | 325 | 0.0 | 1.6 | 0.00 | 0.00 | 0.00 | 78 | 1009.1 |
| 20260506023459 | 16 | 314 | 0.0 | 3.2 | 0.00 | 0.00 | 0.00 | 76 | 1009.0 |
| 20260506022955 | 16 | 311 | 3.2 | 3.2 | 0.00 | 0.00 | 0.00 | 77 | 1008.9 |
| 20260506022453 | 16 | 170 | 0.0 | 0.0 | 0.00 | 0.00 | 0.00 | 73 | 1008.9 |
| 20260506021950 | 16 | 169 | 0.0 | 0.0 | 0.00 | 0.00 | 0.00 | 74 | 1008.8 |
| 20260506021448 | 17 | 169 | 0.0 | 0.0 | 0.00 | 0.00 | 0.00 | 76 | 1008.9 |
| 20260506020945 | 17 | 169 | 0.0 | 0.0 | 0.00 | 0.00 | 0.00 | 77 | 1009.2 |
| 20260506020443 | 17 | 169 | 0.0 | 0.0 | 0.00 | 0.00 | 0.00 | 73 | 1009.6 |
| 20260506015939 | 17 | 169 | 0.0 | 0.0 | 0.00 | 0.00 | 0.00 | 72 | 1009.4 |
| 20260506015437 | 17 | 170 | 0.0 | 0.0 | 0.00 | 0.00 | 0.00 | 72 | 1009.4 |
| 20260506014934 | 17 | 170 | 0.0 | 0.0 | 0.00 | 0.00 | 0.00 | 68 | 1009.1 |
| 20260506014431 | 17 | 169 | 0.0 | 0.0 | 0.00 | 0.00 | 0.00 | 65 | 1009.1 |
| 20260506013927 | 18 | 144 | 0.0 | 0.0 | 0.00 | 0.00 | 0.00 | 66 | 1009.1 |
| 20260506013425 | 18 | 277 | 0.0 | 1.6 | 0.00 | 0.00 | 0.00 | 64 | 1009.0 |